Location: Allie Creek
(37.5926°N, 89.8526°W)
Time: 19:18:13
(UTC+00:00)

USA 81 - Visible Passes

Search period start: 22 April 2024 00:00
Search period end: 02 May 2024 00:00
Orbit: 783 x 787 km, 85.0° (Epoch: 21 April)

Date Brightness Start Highest point End Pass type
(mag) Time Alt. Az. Time Alt. Az. Time Alt. Az.
22 Apr 4.1 03:27:01 72° NNW 03:27:01 72° NNW 03:31:48 10° N visible
23 Apr 4.1 02:55:22 57° E 02:55:22 57° E 03:00:27 10° NNE visible
23 Apr 6.4 04:35:58 15° W 04:36:44 15° WNW 04:39:41 10° NW visible
24 Apr 4.8 02:23:40 31° E 02:24:10 32° E 02:28:48 10° NNE visible
24 Apr 5.8 04:04:16 25° W 04:05:11 26° WNW 04:09:34 10° NNW visible
25 Apr 5.4 01:51:56 17° E 01:53:08 19° E 01:56:40 10° NE visible
25 Apr 4.9 03:32:32 38° WSW 03:33:46 45° W 03:38:49 10° N visible
26 Apr 4.0 03:00:45 44° SSW 03:02:27 80° W 03:07:43 10° N visible
27 Apr 4.1 02:28:54 32° SSE 02:31:13 58° E 02:36:23 10° NNE visible
27 Apr 6.6 04:09:47 10° WSW 04:12:40 15° WNW 04:15:33 10° NW visible
28 Apr 4.8 01:57:00 18° SE 02:00:05 33° E 02:04:44 10° NNE visible
28 Apr 5.9 03:37:35 13° SW 03:41:07 25° WNW 03:45:27 10° NNW visible
29 Apr 5.5 01:25:28 10° SE 01:29:03 19° E 01:32:38 10° NE visible
29 Apr 5.0 03:05:36 15° SSW 03:09:41 44° W 03:14:43 10° N visible
30 Apr 4.1 02:33:32 12° S 02:38:22 79° W 02:43:38 10° N visible
01 May 4.1 02:01:59 10° SSE 02:07:08 59° E 02:12:18 10° NNE visible
01 May 6.7 03:45:47 10° WSW 03:48:35 14° WNW 03:51:25 10° NW visible
